Tracking 19149 objects as of 20-Apr-2018
HD Live streaming from Space Station
objects crossing your sky now

DYNAMICS EXPLORER 1

Track DYNAMICS EXPLORER 1 now!
10-day predictions
DYNAMICS EXPLORER 1 is classified as:


NORAD ID: 12624
Int'l Code: 1981-070A
Perigee: 564.9 km
Apogee: 23,168.4 km
Inclination: 90.2 °
Period: 408.5 minutes
Semi major axis: 18237 km
RCS: 1.6586 m2 (large)
Launch date: August 3, 1981
Source: United States (US)
Launch site: AIR FORCE WESTERN TEST RANGE (AFWTR)
aabbcc
Your satellite tracking list
Your tracking list is empty




NASA's NSSDC Master Catalog

Two Line Element Set (TLE):
1 12624U 81070A   18108.64790969 +.00000058 +00000-0 -35915-4 0  9990
2 12624 090.1504 034.0547 6196951 122.0167 312.9328 03.52492585620048
Source of the keplerian elements: AFSPC